Flag for U.S.A. Weather past 2 weeks in Fort Worth, Texas, U.S.A.

Now
44 °F

Fog.


Feels Like: 41 °F
Forecast: 47 / 63 °F
Wind: 6 mph from East

Location: Meacham International Airport

Current Time: Dec 18, 2014 at 1:47:07 AM

Latest Report: Dec 18, 2014 at 12:53 AM


Visibility: 2 mi

Pressure: 30.12 "Hg

Humidity: 93%

Dew point: 42 °F

Location of Fort WorthLocation

Historic Weather in Fort Worth — Graph

°F

Fort Worth temperature yesterday

Maximum temperature yesterday: 47 °F (at 12:53 PM)
Minimum temperature yesterday: 43 °F (at 11:53 PM)
Average temperature yesterday: 45 °F

Past Weeks' High & Low Weather Summary

 TemperatureHumidityPressure
High78 °F (Dec 5, 1:53 PM)97% (Dec 7, 7:53 AM)30.41 "Hg (Dec 7, 7:53 AM)
Low39 °F (Dec 16, 6:53 AM)32% (Dec 15, 4:53 PM)29.75 "Hg (Dec 14, 3:53 PM)
Average56 °F77%30.16 "Hg
* Reported Dec 3 12:53 AM — Dec 18 12:01 AM, Fort Worth, Weather by CustomWeather, © 2014

Note: Actual official high and low records may vary slightly from our data, if they occured in-between our weather recording intervals... More about our weather records

Advertising

Fort Worth weather history for previous 24 hours

 ConditionsComfort  
Time TempWeatherWind HumidityBarometerVisibility
12:01 AM
Dec 18
43 °FFog.8 mph93%30.14 "Hg3 mi
11:53 PM
Dec 17
43 °FFog.9 mph93%30.15 "Hg2 mi
10:53 PM44 °FFog.5 mph93%30.16 "Hg2 mi
9:53 PM44 °FLight rain. Fog.5 mph93%30.16 "Hg3 mi
8:53 PM44 °FLight rain. Fog.10 mph89%30.15 "Hg3 mi
7:53 PM44 °FLight rain. Fog.9 mph89%30.14 "Hg2 mi
7:02 PM44 °FLight rain. Fog.7 mph89%30.13 "Hg2 mi
6:53 PM44 °FLight rain. Fog.7 mph93%30.13 "Hg3 mi
5:53 PM44 °FLight rain. Fog.7 mph93%30.12 "Hg2 mi
4:53 PM45 °FLight rain. Fog.6 mph90%30.11 "Hg2 mi
4:00 PM45 °FLight rain. Fog.3 mph86%30.09 "Hg2 mi
3:00 PM47 °FStrong thunderstorms. Overcast.8 mph71%30.08 "Hg2 mi
1:53 PM47 °FOvercast.15 mph66%30.08 "Hg10 mi
12:53 PM47 °FOvercast.16 mph64%30.13 "Hg10 mi
11:53 AM46 °FOvercast.12 mph66%30.19 "Hg10 mi
10:53 AM46 °FOvercast.13 mph63%30.23 "Hg10 mi
9:53 AM46 °FOvercast.8 mph61%30.25 "Hg10 mi
8:53 AM45 °FOvercast.9 mph63%30.23 "Hg10 mi
7:53 AM45 °FOvercast.8 mph60%30.25 "Hg10 mi
6:53 AM45 °FOvercast.7 mph60%30.24 "Hg10 mi
5:53 AM45 °FOvercast.6 mph63%30.24 "Hg10 mi
4:53 AM45 °FOvercast.8 mph63%30.24 "Hg10 mi
4:27 AM45 °FOvercast.8 mph63%30.24 "Hg10 mi
3:53 AM45 °FOvercast.8 mph63%30.24 "Hg10 mi
2:53 AM45 °FOvercast.7 mph65%30.25 "Hg10 mi
1:53 AM44 °FPassing clouds.6 mph68%30.26 "Hg10 mi
Weather by CustomWeather, © 2014

See weather overviewHow to use our weather pages